EXPLORER 38 DEB, 3848

Orbit data source: Space-Track

EXPLORER 38 DEB, 3848 is space debris originally from a launch on Thu, 04 Jul 1968 UTC launched from the Air Force Western Test Range (AFWTR). Debris objects in space refer to the collection of defunct objects orbiting the Earth. Examples of debris include non-operational satellites, rocket bodies, and fragments generated from explosions, collisions, or faulty payload assembly.

Loading next visibility...
EXPLORER 38 DEB details
Identifier
3848, 1968-055C
Orbit
Active
Last TLE update4 months ago
Origin
Flag of USGSFC (US)
ManufacturerThiokol/TE
MissionSpacecraft
Bus & MotorSTAR 17, Unknown motor
Mass79 kg wet, 10 kg dry
Launch date (UTC)
1968-07-04 (56 years ago)
Launch vehicleUnknown
Launch site
Air Force Western Test Range (AFWTR)
Object type
Payload
Rocket body
Debris
Shape & HBRSphere + Cone, 0.7 m
Radar Cross Section0.281 m², Medium (>0.1 m² and < 1m²)

Expand to show TLE details & history

TLE from 4 months ago
0 EXPLORER 38 DEB
1 03848U 68055C   24226.29490897 -.00000010  00000-0  00000-0 0  9993
2 03848 120.8322 182.0702 0017060 226.2182 133.7008  6.42500615216819
Epoch: 2024-08-13T07:04Z
Definitive object data (Epoch: 2024-08-13T07:04:40.135Z)
Latitude-0.00001°
Longitude113.68901°
Altitude5,859.44 km
Speed5.704 km/s
True Right ascension12h 08m 16s
True Declination0° 00' 00"
Sunlit
Object was in daylight at TLE epoch
Visualization TLE readout
Latitude-48.23328°
Longitude-39.74565°
Altitude5,840.758 km
Speed5.717 km/s
Apparent Right ascension02h 17m 26s
Apparent Declination-45° 29' 33"
Sunlit
Object is in daylight
Visualization observer readout
Local Sidereal Time14:55:38
Azimuth131.64° SE
Elevation-81.047°
Doppler factor1
Orbital elements
Apogee altitude5,864.636 km
Perigee altitude5,822.934 km
Semi-major axis12,221.922 km
Eccentricity0.001706
Inclination120.8322°
RAAN182.0702°
Arg. of periapsis226.2182°
True anomaly133.84193°
Mean anomaly133.7008°
Eccentric anomaly133.77138°
Mean motion1.60633 °/min
BSTARUnknown
Orbital period224.11 mins
Loading maneuver chart data...
Loading historical data...
Loading historical data...
Loading historical data...
Loading historical data...
Loading historical data...
Loading historical data...
Loading historical data...

EXPLORER 38 DEB Visibility forecast

Observer location: undefined°, undefined

Span
Click to sort rows by Start time (UTC) header in descending order
Start Az.
Max El. time (UTC)
Max El. Az.
Max El.
End time (UTC)
End Az.
53 mins2024-12-21 17:03:16.799Z162.745° S2024-12-21 17:29:16.799Z237.162° WSW39.336°2024-12-21 17:56:16.799Z315.894° NNW
53 mins2024-12-22 05:24:16.799Z44.543° NE2024-12-22 05:50:16.799Z120.351° SE39.608°2024-12-22 06:17:16.799Z198.564° SSW
52 mins2024-12-22 08:51:16.799Z45.576° ENE2024-12-22 09:17:16.799Z328.758° NNW42.251°2024-12-22 09:43:16.799Z258.205° W
49 mins2024-12-22 12:13:16.799Z78.87° E2024-12-22 12:37:16.799Z12.179° NNE39.112°2024-12-22 13:02:16.799Z304.695° NW
19 mins2024-12-22 15:34:16.799Z137.028° SSE2024-12-22 15:53:16.799Z150.215° SSE41.767°2024-12-22 15:53:16.799Z150.215° SSE
|